Weather History for Klamath Falls, OR

Change the Weather History Date:

Monday, October 24, 2011

  Actual Average Record
Temperature  
Mean Temperature 43 °F 44 °F  
Max Temperature 56 °F 58 °F 77 °F (1959)
Min Temperature 30 °F 29 °F 15 °F (2001)
Degree Days  
Heating Degree Days 22 21  
Month to date heating degree days 398 401  
Since 1 July heating degree days 621 757  
Cooling Degree Days 0 0  
Month to date cooling degree days 0 0  
Year to date cooling degree days 104 169  
Moisture  
Dew Point 28 °F    
Average Humidity 62    
Maximum Humidity 100    
Minimum Humidity 20    
Precipitation  
Precipitation 0.00 in 0.06 in 0.80 in (1940)
Month to date precipitation 0.54 0.60  
Year to date precipitation 6.14 10.87  
Sea Level Pressure  
Sea Level Pressure 30.11 in    
Wind  
Wind Speed 7 mph (North)    
Max Wind Speed 20 mph    
Max Gust Speed 23 mph    
Visibility 10 miles    
Events      
T = Trace of Precipitation, MM = Missing Value Source: NWS Daily Summary

Daily Weather History Graph

Daily Weather History Graph

Search for Another Location

Airport:

Trip Planner

Search our weather history database for the weather conditions in past years. The results will help you decide how hot, cold, wet, or windy it might be!

Date:

Astronomy

Oct. 24, 2011 Rise Set
Actual Time 7:29 AM PDT 6:11 PM PDT
Civil Twilight 7:01 AM PDT 6:40 PM PDT
Nautical Twilight 6:28 AM PDT 7:12 PM PDT
Astronomical Twilight 5:56 AM PDT 7:45 PM PDT
Moon 4:52 AM PDT (10/24) 4:41 PM PDT (10/24)
Length of Visible Light 11h 38m
Length of Day
10h 41m
Waning Crescent, 6% of the Moon is Illuminated
Oct 24
Waning Crescent
Oct 26
New
Nov 2
First Quarter
Nov 10
Full
Nov 18
Last Quarter

Hourly Weather History & Observations

Time (PDT) Temp. Windchill Dew Point Humidity Pressure Visibility Wind Dir Wind Speed Gust Speed Precip Events Conditions
12:53 AM 37.0 °F - 35.1 °F 93% 30.05 in 10.0 mi Calm Calm - N/A   Clear
1:53 AM 34.0 °F - 33.1 °F 96% 30.04 in 10.0 mi Calm Calm - N/A   Clear
2:53 AM 34.0 °F - 33.1 °F 96% 30.04 in 10.0 mi Calm Calm - N/A   Clear
3:53 AM 33.1 °F - 30.9 °F 92% 30.03 in 10.0 mi Calm Calm - N/A   Clear
4:53 AM 35.1 °F - 34.0 °F 96% 30.03 in 10.0 mi Calm Calm - N/A   Clear
5:53 AM 34.0 °F - 34.0 °F 100% 30.06 in 9.0 mi Calm Calm - N/A   Clear
6:00 AM 35.6 °F 31.7 °F 33.8 °F 93% 30.09 in 10.0 mi ENE 4.6 mph - N/A   Partly Cloudy
6:53 AM 37.0 °F 34.5 °F 37.0 °F 100% 30.07 in 10.0 mi SSW 3.5 mph - N/A   Mostly Cloudy
7:53 AM 35.6 °F - 35.6 °F 100% 30.11 in 10.0 mi Calm Calm - N/A   Mostly Cloudy
8:53 AM 41.0 °F - 39.9 °F 96% 30.11 in 10.0 mi Calm Calm - N/A   Mostly Cloudy
9:53 AM 48.0 °F - 37.9 °F 68% 30.10 in 10.0 mi NNW 11.5 mph - N/A   Mostly Cloudy
10:53 AM 50.0 °F - 34.0 °F 54% 30.12 in 10.0 mi NNW 10.4 mph - N/A   Mostly Cloudy
11:53 AM 52.0 °F - 35.1 °F 53% 30.12 in 10.0 mi NNW 11.5 mph - N/A   Mostly Cloudy
12:53 PM 53.1 °F - 33.1 °F 47% 30.12 in 10.0 mi NNW 10.4 mph - N/A   Mostly Cloudy
1:53 PM 55.0 °F - 32.0 °F 42% 30.11 in 10.0 mi NNW 12.7 mph 17.3 mph N/A   Mostly Cloudy
2:53 PM 55.9 °F - 26.1 °F 32% 30.09 in 10.0 mi NW 11.5 mph - N/A   Mostly Cloudy
3:53 PM 55.9 °F - 16.0 °F 21% 30.09 in 10.0 mi NW 13.8 mph - N/A   Mostly Cloudy
4:53 PM 54.0 °F - 25.0 °F 33% 30.10 in 10.0 mi NNW 15.0 mph - N/A   Mostly Cloudy
5:53 PM 52.0 °F - 21.0 °F 30% 30.13 in 10.0 mi North 11.5 mph - N/A   Mostly Cloudy
6:53 PM 44.1 °F 40.1 °F 19.0 °F 37% 30.15 in 7.0 mi North 6.9 mph - N/A   Partly Cloudy
7:53 PM 44.6 °F 41.4 °F 19.4 °F 37% 30.16 in 7.0 mi NNE 5.8 mph - N/A   Partly Cloudy
8:53 PM 42.1 °F 35.7 °F 18.0 °F 38% 30.17 in 7.0 mi NE 11.5 mph - N/A   Partly Cloudy
9:53 PM 39.0 °F 34.8 °F 16.0 °F 39% 30.19 in 7.0 mi NE 5.8 mph - N/A   Clear
10:53 PM 39.9 °F 33.4 °F 12.9 °F 33% 30.20 in 10.0 mi NE 10.4 mph - N/A   Clear
11:53 PM 37.9 °F - 10.9 °F 33% 30.20 in 10.0 mi Calm Calm - N/A   Clear